Regional Weather Roundup
Issued by NWS

Home | Current Version | Previous Version | Text Only | Print | Product List | Glossary Off
Versions: 1 2 3 4 5 6 7 8 9 10 11 12 13 14 15 16 17 18 19 20 21 22 23 24 25 26 27 28 29 30 31 32 33 34 35 36 37 38 39 40 41 42 43 44 45 46 47 48 49 50

000
ASUS43 KIND 260659
RWRIN

WEATHER ROUNDUP FOR INDIANA
NATIONAL WEATHER SERVICE INDIANAPOLIS IN
300 AM EDT TUE MAY 26 2015

NOTE: "FAIR" INDICATES FEW OR NO CLOUDS BELOW 12,000 FEET WITH NO
SIGNIFICANT WEATHER AND/OR OBSTRUCTIONS TO VISIBILITY.

* - STATION DOES NOT REPORT WEATHER SUCH AS PRECIPITATION OR FOG.

+ - STATION NOT QUALITY CONTROLLED BY THE NATIONAL WEATHER SERVICE.
    USE DATA WITH CAUTION...ESPECIALLY DEWPOINT AND RELATIVE
    HUMIDITY OBSERVATIONS.

INZ001>003-010>013-019-020-260800-
NORTHWEST INDIANA

CITY           SKY/WX    TMP DP  RH WIND       PRES   REMARKS
MONTICELLO +   CLEAR     66  65  97 S6        30.00F
RENSSELAER +   PTCLDY    68  64  88 S13       29.98F

$$

LMZ046-743>745-260800-
SOUTHERN LAKE MICHIGAN

STATION/POSITION TIME  TEMP    WIND        PRES    WAVE
                       AIR SEA DIR/SP/G            HT
                 (UTC) (F)     (DEG/KT/KT) (MB)    (FT)
BURNS HARBOR     0600   69     190/ 10/ 14 1015.2F
MICHIGAN CITY    0600   70     170/ 13/ 16   N/A
5NW MICH CITY    0600   63 52  210/ 10/ 14   N/A     1

$$

INZ004-005-014>016-021>024-260800-
NORTH CENTRAL INDIANA

CITY           SKY/WX    TMP DP  RH WIND       PRES   REMARKS
GOSHEN         PTCLDY    66  63  90 S7        30.01S
SOUTH BEND     MOCLDY    68  64  87 S7        30.01S
WARSAW +       PTCLDY    66  63  88 S5        30.02F

$$

INZ006>009-017-018-025>027-260800-
NORTHEAST INDIANA

CITY           SKY/WX    TMP DP  RH WIND       PRES   REMARKS
ANGOLA *+      CLEAR     64  63  94 S6        30.03S
FORT WAYNE     PTCLDY    65  62  90 S10       30.04F

$$

INZ028-029-035-036-043>045-051>053-260800-
WEST CENTRAL INDIANA

CITY           SKY/WX    TMP DP  RH WIND       PRES   REMARKS
CRAWFORDSVL +  PTCLDY    63  60  90 S7        30.03S
GREENCASTLE +  MOCLDY    63  59  88 SE5       30.04F FOG
LAFAYETTE      PTCLDY    65  64  97 S7        30.00F
TERRE HAUTE    MOCLDY    66  64  93 S8        30.02F

$$

INZ030>032-037>040-046>048-054>057-064-065-260800-
CENTRAL INDIANA

CITY           SKY/WX    TMP DP  RH WIND       PRES   REMARKS
GREENWOOD *+   MOCLDY    66  63  88 S9        30.06F
INDIANAPOLIS   PTCLDY    65  62  90 SE8       30.03F
-EAGLE CREEK   PTCLDY    65  63  93 SE3       30.04F
KOKOMO *+      PTCLDY    64  63  94 S8        30.03F
MT COMFORT *+  MOCLDY    64 N/A N/A S3        30.07S
SHELBYVILLE    MOCLDY    69  64  84 S8        30.06F

$$

INZ033-034-041-042-049-050-058-059-260800-
EAST CENTRAL INDIANA

CITY           SKY/WX    TMP DP  RH WIND       PRES   REMARKS
MUNCIE         CLOUDY    68  63  84 SW8       30.06F

$$

INZ060-061-067>069-081>083-085>088-260800-
SOUTHWEST INDIANA

CITY           SKY/WX    TMP DP  RH WIND       PRES   REMARKS
EVANSVILLE     MOCLDY    68  66  93 SE7       30.03S
HUNTINGBURG *+ PTCLDY    66  63  88 SE9       30.05F

$$

INZ062-063-066-070>080-084-089>092-260800-
SOUTH CENTRAL AND SOUTHEAST INDIANA

CITY           SKY/WX    TMP DP  RH WIND       PRES   REMARKS
BLOOMINGTON    CLOUDY    66  65  96 S8        30.05F
MADISON *+     MOCLDY    66  63  88 S3        30.12S
SEYMOUR +      MOCLDY    68  64  88 S6        30.08F

$$



USA.gov is the U.S. government's official web portal to all federal, state and local government web resources and services.